SCP
4 4 5 5 5 6 7 8 8 7 5 5 5 4 2 1 1 1 1 1 0 0 0 0 0 0 0 0 0 0 0 0 0 0 0 0 1 1
4 4 5 5 6 6 7 9 10 9 7 6 6 4 3 2 1 1 1 1 0 0 0 0 0 0 0 0 0 0 0 0 0 0 0 0 0 0
5 5 6 7 7 7 8 9 10 10 9 7 6 5 3 2 2 2 2 1 1 0 0 0 0 0 0 0 0 0 0 0 0 0 0 0 0 0
6 6 7 8 9 8 8 8 9 10 9 7 6 5 4 3 3 3 2 2 1 1 0 0 0 0 0 0 0 0 0 0 0 0 0 0 0 0
6 7 7 8 9 8 7 7 7 7 7 7 6 5 4 3 3 3 3 2 2 1 0 0 0 0 0 0 0 0 0 0 0 0 0 0 0 0
6 6 7 7 7 6 5 5 4 5 5 5 5 4 4 3 3 3 2 2 2 1 1 0 0 0 0 0 0 0 0 0 0 0 0 0 0 0
5 6 6 6 5 4 3 3 3 3 4 4 4 4 3 3 2 2 2 2 1 1 1 1 0 0 0 0 0 0 0 0 0 0 0 0 0 0
6 6 6 5 4 3 3 3 3 3 3 4 4 4 3 2 2 1 1 1 1 1 1 1 1 0 0 0 0 0 0 0 0 0 0 0 0 0
7 7 5 4 4 4 4 3 3 3 3 4 4 4 3 2 2 1 1 1 1 1 1 1 1 1 1 0 0 0 0 0 0 0 0 0 0 0
8 7 6 5 4 4 5 5 6 5 4 3 4 4 4 3 3 2 1 1 1 1 1 1 1 1 1 1 0 0 0 0 0 0 0 0 0 0
8 7 7 5 3 3 4 6 7 7 6 4 4 4 4 3 3 2 2 1 1 1 1 1 1 1 1 1 1 0 0 0 0 0 0 0 0 0
9 8 6 4 2 1 3 5 7 8 8 6 4 4 4 3 3 3 3 2 1 1 1 1 1 1 1 1 1 0 0 0 0 0 0 0 0 0
9 7 5 3 1 1 2 4 5 6 8 8 6 5 4 4 4 4 4 3 2 1 1 1 1 1 1 1 0 0 0 0 0 0 0 0 0 0
7 6 3 1 0 0 1 3 4 4 6 8 7 6 5 4 4 4 4 3 2 2 2 2 1 1 1 0 0 0 0 0 0 0 0 0 0 0
5 3 1 0 0 0 1 1 3 4 6 7 7 6 5 4 4 3 3 2 2 2 2 1 1 1 1 0 0 0 0 0 0 0 0 0 0 0
2 1 1 1 1 1 1 1 3 5 6 7 6 5 4 3 3 3 2 1 1 1 1 1 1 1 1 0 0 0 0 0 0 0 0 0 0 0
2 2 2 2 1 1 2 2 3 5 5 5 4 4 3 3 3 2 2 1 1 1 1 1 1 1 1 0 0 0 0 0 0 0 0 0 0 0
2 3 3 2 2 2 2 2 3 4 4 3 3 3 3 3 3 2 2 1 1 1 1 1 1 1 0 0 0 0 0 0 0 0 0 0 0 0
3 3 3 3 3 2 2 2 2 3 3 2 3 3 3 3 3 3 2 2 1 1 1 1 1 0 0 0 0 0 0 0 0 0 0 0 0 0
3 3 4 3 3 3 2 2 2 2 3 3 3 4 4 3 3 3 3 2 1 1 1 1 1 0 0 0 0 0 0 0 0 0 0 0 0 0
3 3 3 3 3 3 3 3 3 3 3 3 3 3 3 3 3 2 2 2 1 1 1 1 1 0 0 0 0 0 0 0 0 0 0 0 0 0
2 2 2 2 2 3 3 3 4 4 4 4 3 3 3 2 2 2 1 1 1 1 1 1 1 1 0 0 0 0 0 0 0 0 0 0 0 0
2 2 2 2 2 3 3 3 3 3 3 4 4 3 3 2 2 1 1 1 1 1 1 1 1 1 0 0 0 0 0 0 0 0 0 0 0 0
Wind_Speed
3 3 2 2 2 2 2 2 2 2 2 2 1 2 2 3 5 4 5 7 7 5 4 4 3 2 1 1 2 1 1 1 2 2 2 3 3 3
2 2 2 2 2 1 2 2 2 2 1 1 1 2 3 4 5 4 5 8 7 6 5 4 4 3 2 2 2 2 2 2 3 3 3 3 3 3
2 2 2 2 2 2 1 1 1 1 1 1 1 2 3 3 3 3 4 4 4 6 5 5 4 4 3 3 3 4 4 4 4 4 4 3 2 2
2 2 2 2 2 1 2 2 1 1 2 2 1 2 2 3 3 3 2 3 4 6 6 6 5 5 4 4 5 4 5 4 4 4 3 3 2 2
2 2 2 1 2 1 2 2 1 1 1 2 2 2 2 3 3 2 3 2 3 5 7 6 5 5 5 5 5 5 4 4 4 3 3 3 2 2
2 2 2 2 2 2 2 1 1 1 1 1 2 2 2 3 3 2 2 2 2 3 4 5 6 6 5 5 5 6 5 4 4 4 3 2 2 2
2 3 3 2 1 1 1 1 1 1 1 1 1 2 2 3 3 2 2 2 2 2 3 3 4 3 4 5 6 6 6 5 5 4 4 3 2 2
3 3 3 3 3 3 2 1 0 1 1 1 1 2 2 2 2 2 2 2 2 2 3 3 3 4 4 4 6 8 8 7 6 5 4 4 3 2
3 3 4 2 4 3 3 4 3 2 2 1 1 1 1 2 3 3 2 2 1 2 2 2 2 2 3 5 10 10 9 8 8 6 5 4 3 3
3 3 3 1 2 2 3 3 3 3 3 3 1 1 0 2 3 3 3 2 1 1 2 2 2 2 3 3 9 11 10 9 8 7 6 5 4 4
3 3 3 2 3 3 2 2 2 2 2 3 2 2 2 2 3 1 2 2 2 2 2 1 1 1 2 3 6 10 10 10 9 8 7 6 5 4
2 2 2 2 4 4 3 3 3 2 2 2 2 2 2 3 4 3 2 2 2 1 2 1 1 1 1 2 4 5 6 8 9 8 8 7 6 4
2 1 1 3 4 4 3 2 3 2 2 2 2 2 2 2 3 2 2 2 1 1 2 2 1 1 1 1 2 4 5 4 5 5 7 8 8 6
1 0 2 3 4 4 3 2 2 2 2 2 2 2 2 2 2 2 2 2 2 2 2 2 1 1 1 1 1 2 3 4 4 4 5 7 8 8
1 2 2 3 3 3 4 3 2 2 2 2 2 2 2 2 2 2 2 1 2 2 2 2 2 2 2 2 2 2 2 3 4 4 4 5 5 5
1 1 2 3 2 2 3 3 3 2 2 2 1 1 1 2 2 2 2 2 2 2 2 3 3 3 3 3 2 2 2 2 3 3 3 3 4 5
2 2 1 1 2 2 3 3 3 3 3 2 1 1 1 1 2 2 2 2 2 2 2 2 3 3 3 3 2 2 2 2 3 3 3 4 4 5
2 2 2 2 2 1 1 1 1 1 2 2 2 1 1 1 1 1 1 2 2 2 1 2 2 1 1 2 3 3 2 2 2 3 3 4 4 4
1 1 1 1 1 1 0 0 0 1 0 0 0 1 1 1 1 1 1 1 2 1 1 1 2 1 2 3 2 4 3 2 2 2 3 4 4 4
1 1 1 1 1 2 2 2 2 2 1 1 1 1 1 1 1 1 1 1 1 1 1 1 1 1 2 3 3 3 6 4 3 3 3 3 3 3
1 1 1 1 1 2 2 1 1 1 2 1 1 2 1 1 1 1 1 1 1 2 2 2 2 3 3 2 3 3 3 5 5 3 3 3 3 2
1 1 1 1 2 2 1 1 1 1 1 1 1 1 1 2 2 2 1 2 2 2 2 2 2 2 2 3 4 4 3 2 4 6 5 4 2 3
2 2 2 2 2 1 1 1 1 2 2 2 1 2 1 1 2 2 2 2 2 2 2 2 2 2 2 3 3 3 4 3 2 2 4 6 7 6
Wind_Direction
253 249 255 258 249 239 240 230 222 249 240 199 181 134 122 109 131 138 133 141 142 142 145 145 146 152 169 176 181 178 171 180 182 186 183 180 176 184
232 236 257 280 288 262 247 245 223 229 244 184 162 127 120 124 134 130 127 136 140 141 144 148 151 150 151 146 139 137 136 128 127 130 132 133 141 159
245 230 232 245 279 289 286 268 251 209 221 183 113 113 108 111 126 130 138 141 141 148 151 152 156 157 148 140 129 121 120 122 124 123 121 121 131 151
231 255 261 248 238 269 292 282 268 208 189 191 158 134 134 145 145 155 157 150 144 153 155 153 154 153 149 143 140 138 134 134 134 133 130 124 124 132
225 236 250 256 267 263 266 284 292 271 187 186 180 152 149 159 154 170 173 158 164 158 160 162 160 156 153 151 149 146 142 138 136 135 132 131 128 132
223 228 235 227 237 250 252 252 272 287 241 199 185 161 151 159 168 185 186 175 181 170 160 164 166 167 165 161 158 153 146 142 138 136 132 129 126 126
226 226 221 196 177 205 267 288 272 253 242 210 191 158 159 165 189 189 184 174 186 179 165 175 170 176 181 185 179 169 159 157 156 152 148 147 149 146
240 245 225 190 179 181 180 176 241 245 241 231 211 190 179 173 167 181 177 183 195 175 181 199 185 184 182 181 178 173 170 167 165 163 161 161 165 165
248 247 258 223 171 184 187 204 213 205 197 215 240 237 193 171 174 193 200 203 206 175 180 211 193 182 174 166 168 172 175 177 175 174 176 177 178 180
238 235 240 218 204 192 195 203 207 197 203 205 196 232 183 161 184 198 198 195 220 211 180 203 191 188 153 147 172 175 179 182 184 184 184 186 191 197
247 239 228 206 192 184 205 218 213 188 171 144 139 135 117 139 156 174 197 197 218 200 179 198 189 189 165 162 179 185 186 189 192 192 194 196 198 200
228 226 215 200 173 177 203 219 225 222 185 158 153 175 184 180 183 199 210 213 231 192 172 191 190 178 212 173 168 178 191 201 204 205 204 206 204 207
229 221 171 160 164 178 204 221 225 226 208 195 189 180 177 174 188 199 208 200 221 216 164 171 201 195 209 198 181 180 183 185 193 208 212 212 209 208
265 252 109 134 166 194 206 227 240 246 220 207 201 188 185 183 183 189 199 214 224 216 180 177 205 200 218 233 218 187 189 189 188 194 198 203 211 216
324 67 112 160 176 196 209 210 215 226 217 215 212 201 197 183 170 176 189 217 247 235 187 201 221 214 216 230 230 200 201 203 191 192 197 195 196 199
227 150 155 192 224 224 203 204 212 228 218 211 207 198 178 169 175 178 191 200 216 229 217 211 217 218 236 244 236 224 201 199 193 197 205 206 197 201
181 179 171 170 207 214 208 206 203 208 214 210 199 203 201 188 185 183 194 213 222 225 220 219 218 220 236 238 240 240 224 216 203 196 203 215 216 210
167 186 184 188 201 207 203 194 199 208 210 189 190 194 197 203 211 202 193 214 230 234 225 208 205 218 253 267 222 239 242 237 225 207 205 218 225 214
170 199 187 179 168 152 123 93 68 44 30 138 213 226 203 225 237 238 230 233 239 238 238 224 195 199 243 259 249 221 233 242 227 224 227 225 229 220
148 124 94 64 71 74 65 45 38 39 29 17 33 20 3 316 301 283 261 263 278 282 273 262 205 209 243 257 266 254 223 226 230 234 241 245 236 213
135 110 87 61 58 64 60 56 51 48 41 25 22 5 355 340 321 311 302 301 272 260 261 255 238 232 242 261 267 268 245 221 232 234 235 247 251 234
76 81 74 62 65 66 55 43 41 49 41 33 10 349 355 346 327 321 307 285 271 263 263 265 258 256 249 257 267 272 268 249 230 237 248 236 229 242
83 80 80 72 68 65 56 43 52 45 35 15 354 336 338 327 309 292 280 280 277 277 276 274 274 270 269 267 272 278 279 268 246 241 254 244 234 235